TimeAST,TemperatureF,Dew PointF,Humidity,Sea Level PressureIn,VisibilityMPH,Wind Direction,Wind SpeedMPH,Gust SpeedMPH,PrecipitationIn,Events,Conditions,WindDirDegrees,DateUTC
12:00 AM,71.6,71.6,100,29.83,5.0,East,9.2,-,N/A,Rain,Light Rain,100,2012-10-24 04:00:00
1:00 AM,71.6,71.6,100,29.83,6.2,East,9.2,-,N/A,,Mostly Cloudy,100,2012-10-24 05:00:00
2:00 AM,72,72,99,29.82,6,East,6.7,,,,Haze,100,2012-10-24 06:00:00
2:00 AM,71.6,71.6,100,29.80,6.2,East,6.9,-,N/A,,Mostly Cloudy,100,2012-10-24 06:00:00
3:00 AM,71.6,71.6,100,29.80,6.2,Calm,Calm,-,N/A,,Scattered Clouds,0,2012-10-24 07:00:00
4:00 AM,71.6,71.6,100,29.77,6.2,ESE,5.8,-,N/A,,Scattered Clouds,110,2012-10-24 08:00:00
5:00 AM,73,72,98,29.66,5,SE,11.2,,,Rain,Light Rain,140,2012-10-24 09:00:00
5:00 AM,71.6,71.6,100,29.77,6.2,SSE,5.8,-,N/A,,Scattered Clouds,150,2012-10-24 09:00:00
6:00 AM,71.6,71.6,100,29.77,6.2,ESE,11.5,-,N/A,,Scattered Clouds,120,2012-10-24 10:00:00
7:00 AM,73.4,73.4,100,29.80,6.2,ESE,6.9,-,N/A,,Scattered Clouds,120,2012-10-24 11:00:00
8:00 AM,73.4,73.4,100,29.80,5.0,SE,9.2,-,N/A,,Mostly Cloudy,130,2012-10-24 12:00:00
9:00 AM,75.2,73.4,94,29.83,6.2,ESE,11.5,-,N/A,,Mostly Cloudy,110,2012-10-24 13:00:00
10:00 AM,77.0,73.4,89,29.83,6.2,ESE,21.9,-,N/A,,Mostly Cloudy,110,2012-10-24 14:00:00
11:00 AM,76,73,87,29.82,6,ESE,15.7,,,,Haze,120,2012-10-24 15:00:00
11:00 AM,75.2,73.4,94,29.80,6.2,ESE,16.1,-,N/A,,Mostly Cloudy,120,2012-10-24 15:00:00
12:00 PM,77.0,73.4,89,29.80,6.2,ESE,13.8,-,N/A,,Mostly Cloudy,110,2012-10-24 16:00:00
1:00 PM,78.8,73.4,83,29.77,6.2,ESE,20.7,-,N/A,,Overcast,110,2012-10-24 17:00:00
2:00 PM,77.0,75.2,94,29.74,5.0,ESE,20.7,-,N/A,Rain,Light Rain,120,2012-10-24 18:00:00
3:00 PM,77.0,75.2,94,29.71,5.0,ESE,13.8,-,N/A,Rain,Light Rain,120,2012-10-24 19:00:00
4:00 PM,77.0,75.2,94,29.71,4.3,ESE,17.3,-,N/A,,Overcast,120,2012-10-24 20:00:00
5:00 PM,74,73,95,29.72,4,ESE,20.1,,,Rain,Light Rain,120,2012-10-24 21:00:00
5:00 PM,75.2,73.4,94,29.71,4.3,ESE,19.6,-,N/A,Rain,Light Rain,120,2012-10-24 21:00:00
6:00 PM,73.4,71.6,94,29.71,5.0,ESE,21.9,-,N/A,Rain,Light Rain,120,2012-10-24 22:00:00
7:00 PM,73.4,71.6,94,29.68,5.0,ESE,21.9,-,N/A,Rain,Light Rain,120,2012-10-24 23:00:00
8:00 PM,71.6,71.6,100,29.71,5.6,ESE,17.3,-,N/A,Rain,Light Rain,110,2012-10-25 00:00:00
9:00 PM,71.6,71.6,100,29.71,5.0,SE,8.1,-,N/A,Rain,Light Rain,130,2012-10-25 01:00:00
10:00 PM,71.6,71.6,100,29.74,5.0,ESE,10.4,-,N/A,Rain,Light Rain,120,2012-10-25 02:00:00
11:00 PM,71.6,71.6,100,29.74,5.0,SE,11.5,-,N/A,Rain,Light Rain,140,2012-10-25 03:00:00